Погода в Луго

Испания     43°00′49″N   7°33′17″W
темп.,
°C
ветер,
м/с
пор.,
м/с
влажн.,
%
обл.,
%
осадки,
мм/ч
давл.,
гПа
погр.,
м
8 декабря, ср
ср801:00+3зюз31198100 7.1 1012908
04:00+3зюз41395100 4.4 10131325
07:00+3з31294100 6.1 10141177
10:00+3з31295100 3.3 10161251
13:00+4сз31198100 7.4 10171131
16:00+4сз31198100 2.8 10181310
19:00+4зсз2895100 3.8 1020923
22:00+5зсз31198100 1.6 10221202
9 декабря, чт
чт901:00+6зюз1699100 3.1 1023469
04:00+6ююз2899100 1.5 1022478
07:00+9з41197100 3.3 10221057
10:00+9з31195100 0.2 10231118
13:00+10з31094100 0.4 10231100
16:00+10з31093100 0.2 1022904
19:00+10зюз21099100 0.6 1022820
22:00+10зюз31198100 0.6 1023856
10 декабря, пт
пт1001:00+10юз31198100 2.5 10221008
04:00+11зюз31198100 0.9 10211131
07:00+11зюз31099100 2.3 10201151
10:00+11з21099100 1.9 10211080
13:00+12зсз3998100 3.1 10221007
16:00+12сз2892100 0.5 1022905
19:00+9сз1494100 0.6 1024164
22:00+9з1194100 0.1 102656
11 декабря, сб
сб1101:00+8юз1294100 0.1 102775
04:00+8ююв1297100 0.8 102773
07:00+8ююв1297100 1.0 102798
10:00+8ю1297100 0.0 1028101
13:00+9ююв1296100 0.0 1028158
16:00+10юв1197100 0.1 102897
19:00+10в0095100 0.2 102913
22:00+9в009493 0.0 102913
12 декабря, вс
вс1201:00+6вюв11970 0.0 102910
04:00+5вюв11973 0.0 102910
07:00+4вюв11975 0.0 102810
10:00+5юв11945 0.0 102933
13:00+11ю137831 0.0 1026277
16:00+13ю14755 0.0 1024349
19:00+8ююв119664 0.0 102612
22:00+7ююв11975 0.0 102630